Regional Weather Roundup
Issued by NWS San Angelo, TX

Home | Current Version | Previous Version | Text Only | Print | Product List | Glossary On
Versions: 1 2 3 4 5 6 7 8 9 10 11 12 13 14 15 16 17 18 19 20 21 22 23 24 25 26 27 28 29 30 31 32 33 34 35 36 37 38 39 40 41 42 43 44 45 46 47 48 49 50
000
ASUS44 KSJT 020510
RWRSJT
WEST CENTRAL TEXAS REGIONAL WEATHER ROUNDUP
NATIONAL WEATHER SERVICE SAN ANGELO TX
1200 AM CDT TUE SEP 02 2014

NOTE: "FAIR" INDICATES FEW OR NO CLOUDS BELOW 12,000 FEET WITH NO
SIGNIFICANT WEATHER AND/OR OBSTRUCTIONS TO VISIBILITY.

TXZ049-054-064>066-071>073-076>078-098-099-113-114-127-128-139-140-
154-155-168>170-020600
...LOCATIONS ACROSS WEST CENTRAL TEXAS...

CITY           SKY/WX    TMP DP  RH WIND       PRES   REMARKS
SAN ANGELO     CLEAR     86  61  42 S13G20    29.90S
ABILENE        CLEAR     87  62  43 S18       29.88S
DYESS AFB      CLEAR     86  64  47 S18G31    29.87S
JUNCTION       CLEAR     83  66  56 SE13G20   29.94R
SWEETWATER     CLEAR     85  60  42 S20G25    29.93R
BROWNWOOD      MOCLDY    84  66  54 SE10      29.91S
COLEMAN        CLEAR     82  61  49 S8        29.91S
SONORA         CLEAR     82  61  47 VRB5      29.98R
OZONA          FAIR      81  59  47 S9        29.96S
BRADY          CLEAR     81  63  54 SE8       29.94R
$$

TEXAS PANHANDLE/OKLAHOMA PANHANDLE

CITY           SKY/WX    TMP DP  RH WIND       PRES   REMARKS
AMARILLO       CLEAR     75  64  68 E13       29.93S
BORGER         CLEAR     78  64  61 E9        29.90S
CANADIAN       CLEAR     76  70  82 E9        29.90R
DALHART        CLEAR     72  62  71 SE12      29.95S
DUMAS          CLEAR     70  62  77 SE7       29.93S
GUYMON         NOT AVBL
HEREFORD       CLEAR     72  57  59 E6        29.94S
PAMPA          CLEAR     73  64  73 E13       29.93S
PERRYTON       CLEAR     71  66  86 E15       29.93R
$$

SOUTHERN PANHANDLE/SOUTH PLAINS/ROLLING PLAINS

CITY           SKY/WX    TMP DP  RH WIND       PRES   REMARKS
LUBBOCK        CLEAR     85  59  41 S22G28    29.90R
SNYDER         CLEAR     85  62  45 S13       29.90S
CHILDRESS      CLEAR     88  61  40 S15       29.83R
SEMINOLE       CLEAR     86  58  38 S14G21    29.94R
$$

PERMIAN BASIN

CITY           SKY/WX    TMP DP  RH WIND       PRES   REMARKS
MIDLAND        CLEAR     87  60  40 S15       29.92R
ODESSA         CLEAR     87  60  40 S17       29.93R
WINK           CLEAR     89  61  38 S15G22    29.88R
$$

FAR WEST/SOUTHWEST MOUNTAINS/TRANS PECOS

CITY           SKY/WX    TMP DP  RH WIND       PRES   REMARKS
ALPINE         CLEAR     80  57  46 S7        30.09S
DRYDEN           N/A     91  61  36 SE15      29.89R
EL PASO        CLEAR     88  35  15 W6        29.97S
FORT STOCKTON  CLEAR     84  59  42 SE18G29   29.92R
GUADALUPE PASS CLEAR     80  38  22 W13       30.12S
MARFA          CLEAR     75  54  46 S8        30.10R
PECOS          CLEAR     87  57  36 SE9       29.88R
$$

DALLAS/FORT WORTH METROPLEX

CITY           SKY/WX    TMP DP  RH WIND       PRES   REMARKS
DFW AIRPORT    CLEAR     87  69  54 S15G25    29.87R
FTW MEACHAM    CLEAR     87  66  49 S17G26    29.87R
DAL-EXECUTIVE  CLEAR     86  70  58 S15G24    29.89S
GRAND PRAIRIE  CLEAR     86  66  50 SE14G20   29.89S
ADDISON        CLEAR     87  68  53 S12G20    29.90R
MESQUITE       CLEAR     83  69  60 S12       29.90S
LANCASTER      CLEAR     84  69  61 S13       29.91R
$$

NORTH CENTRAL TEXAS

CITY           SKY/WX    TMP DP  RH WIND       PRES   REMARKS
SHRMAN/DENISON CLEAR     85  66  53 SE15      29.90R
GAINESVILLE    CLEAR     83  68  61 SE12      29.90R
BRIDGEPORT     CLEAR     86  64  47 S12G17    29.88S
DENTON         CLEAR     86  65  49 S18       29.87R
WAXAHACHIE     CLEAR     82  67  59 S10G16    29.92R
GRANBURY       CLEAR     88  68  50 SE15      29.89R
$$

WESTERN NORTH TEXAS

CITY           SKY/WX    TMP DP  RH WIND       PRES   REMARKS
WICHITA FALLS  CLEAR     87  66  49 S21G29    29.82R
VERNON         CLEAR     88  64  43 S20       29.81R
BRECKENRIDGE   CLEAR     88  63  43 S16G23    29.86S
COMANCHE         N/A     84  67  56 S14       29.91S
$$

CENTRAL AND SOUTH CENTRAL TEXAS

CITY           SKY/WX    TMP DP  RH WIND       PRES   REMARKS
AUSTIN/BERGSTM CLEAR     82  73  74 S12       29.93R
WACO           CLEAR     85  68  56 S21       29.91R
HILLSBORO      CLEAR     84  67  56 SE15      29.91S
TEMPLE         CLEAR     82  66  57 S17       29.92S
KILLEEN-GRAY   CLEAR     82  70  65 SE14G22   29.93R
FORT HOOD      CLEAR     86  68  54 SE10G20   29.93S
GEORGETOWN     CLEAR     82  72  69 S12       29.95R
LAGO VISTA     FAIR      82  70  67 SE6G17    29.96S
SAN MARCOS     CLEAR     81  68  65 S9        29.96R
NEW BRAUNFELS  CLEAR     82  72  71 S13       29.93R
RANDOLPH AFB   CLEAR     81  71  72 SE10      29.95R
SAN ANTONIO    CLEAR     83  73  72 SE13      29.95R
STINSON        CLEAR     82  74  76 SE15      29.92R
PLEASANTON     NOT AVBL
LA GRANGE      CLEAR     82  76  83 SE3       29.92F
GIDDINGS       CLEAR     80  72  75 S6        29.98S
$$

EAST TEXAS

CITY           SKY/WX    TMP DP  RH WIND       PRES   REMARKS
PARIS          CLEAR     79  64  61 S9        29.93R
CLARKSVILLE    NOT AVBL
TYLER          CLEAR     82  74  76 S12       29.93R
LONGVIEW       CLEAR     81  74  79 S8        29.93S
PALESTINE      CLEAR     81  74  77 SE6       29.95S
NACOGDOCHES    CLEAR     79  75  89 S8        29.95S
$$

TEXAS HILL COUNTRY AND EDWARDS PLATEAU

CITY           SKY/WX    TMP DP  RH WIND       PRES   REMARKS
LLANO          CLEAR     84  68  58 S7        29.96R
HORSESHOE BAY  FAIR      83  68  58 S10G21    29.94R
KERRVILLE      CLEAR     82  71  70 SE10      29.97R
FREDERICKSBRG  CLEAR     81  68  65 S10G17    29.96S
ROCKSPRINGS    CLEAR     82  66  57 SE16      29.99R
HONDO          CLEAR     83  72  69 SE16      29.94R
UVALDE         CLEAR     88  74  62 SE15G21   29.91S
DEL RIO        CLEAR     89  64  43 SE13      29.85R
$$

SOUTHEAST TEXAS

CITY           SKY/WX    TMP DP  RH WIND       PRES   REMARKS
COLLEGE STN    CLEAR     82  74  76 S10       29.94S
CALDWELL       CLEAR     81  73  78 S9        29.97S
CROCKETT       CLEAR     82  79  89 S6        29.97S
BRENHAM        CLEAR     81  75  82 SE5       29.95S
HUNTSVILLE     CLEAR     81  75  82 VRB6      29.94F
CONROE         CLEAR     77  75  93 SE3       29.96S
HOUSTON BUSH   PTCLDY    81  77  89 S6        29.94F
HOUSTON HOBBY  PTCLDY    81  77  88 SE7       29.94F
PERLAND        CLEAR     82  77  84 SE5       29.95F
WHARTON        CLEAR     78  76  94 SE5       29.95F
$$

THE UPPER TEXAS COAST

CITY           SKY/WX    TMP DP  RH WIND       PRES   REMARKS
ORANGE         CLEAR     80  80 100 S6        29.98S
PORT ARTHUR    CLEAR     81  76  84 S9        29.95F
GALVESTON      CLEAR     84  78  82 SE17      29.96F
ANGLETON       CLEAR     81  77  88 SE7       29.95S
BAY CITY       PTCLDY    81  81 100 SE5       29.94F
$$

TEXAS COASTAL BEND, RIO GRANDE PLAINS DEEP SOUTH TEXAS

CITY           SKY/WX    TMP DP  RH WIND       PRES   REMARKS
VICTORIA       CLEAR     82  78  88 SE10      29.93S
BEEVILLE       FAIR      80  78  93 SE7       29.93R
ROCKPORT       CLEAR     84  77  79 SE15G22   29.92S
PORT ARANSAS   PTCLDY    83  78  82 SE8G18    29.92S
PORT LAVACA    CLEAR     81  77  89 SE8       29.93S
CORPUS CHRISTI PTCLDY    82  77  84 SE12      29.91S
KINGSVILLE NAS CLEAR     81  79  94 SE8       29.91R
COTULLA        CLEAR     84  71  65 SE20G29   29.90R
LAREDO         CLEAR     86  74  67 SE15      29.91R
BROWNSVILLE    CLEAR     82  79  90 E7        29.90S
PORT ISABEL    CLEAR     85  77  77 SE13      29.90S
HEBBRONVILLE   CLEAR     81  74  79 SE10      29.93R
MCALLEN        CLEAR     82  77  84 SE8       29.90R
WESLACO        NOT AVBL
FALFURRIAS     CLEAR     73  69  87 SE3       29.91S
EDINBURG       CLEAR     84  76  78 SE9       29.90S
$$



USA.gov is the U.S. government's official web portal to all federal, state and local government web resources and services.